Davenport, IA

8:42 PM CDT on March 30, 2017 (GMT -0500)
Davenport Municipal

Weather History for KDVN - November, 2011

Change the Weather History Date:

Tuesday, November 22, 2011

  Actual Average Record
Temperature  
Mean Temperature 38 °F 35 °F  
Max Temperature 41 °F 44 °F 70 °F (2010)
Min Temperature 35 °F 27 °F 1 °F (2015)
Degree Days  
Heating Degree Days 27 30  
Month to date heating degree days 481 531  
Since 1 July heating degree days 1044 1091  
Cooling Degree Days 0 0  
Month to date cooling degree days 0 0  
Year to date cooling degree days 1020 786  
Moisture  
Dew Point 35 °F    
Average Humidity 86    
Maximum Humidity 92    
Minimum Humidity 79    
Precipitation  
Precipitation 0.20 in 0.06 in 0.25 in (1951)
Month to date precipitation 3.42 1.87  
Year to date precipitation 30.38 33.72  
Snow  
Snow 0.00 in - - ()
Month to date snowfall 0.5  
Since 1 July snowfall 0.5  
Since 1 September snowfall 0.5  
Snow Depth 0.00 in    
Sea Level Pressure  
Sea Level Pressure 30.04 in    
Wind  
Wind Speed 10 mph (NNE)    
Max Wind Speed 16 mph    
Max Gust Speed 20 mph    
Visibility 3 miles    
Events Rain    
T = Trace of Precipitation, MM = Missing Value Source: NWS Daily Summary

Daily Weather History Graph

Daily Weather History Graph

Search for Another Location

Airport or City:

Trip Planner

Search our weather history database for the weather conditions in past years. The results will help you decide how hot, cold, wet, or windy it might be!

Date:

Astronomy

Nov. 22, 2011 Rise Set
Actual Time 6:59 AM CST 4:37 PM CST
Civil Twilight 6:29 AM CST 5:07 PM CST
Nautical Twilight 5:55 AM CST 5:41 PM CST
Astronomical Twilight 5:21 AM CST 6:14 PM CST
Moon 3:48 AM CST (11/22) 2:37 PM CST (11/22)
Length of Visible Light 10h 38m
Length of Day
9h 37m
Waning Crescent, 9% of the Moon is Illuminated
Nov 22
Waning Crescent
Nov 25
New
Dec 2
First Quarter
Dec 10
Full
Dec 17
Last Quarter

Hourly Weather History & Observations

Time (CST) Temp. Windchill Dew Point Humidity Pressure Visibility Wind Dir Wind Speed Gust Speed Precip Events Conditions
12:37 AM 39.2 °F 33.0 °F 33.8 °F 81% 30.15 in 5.0 mi East 9.2 mph - N/A   Haze
12:52 AM 39.9 °F 33.9 °F 34.0 °F 79% 30.17 in 5.0 mi ENE 9.2 mph - N/A   Haze
3:24 AM 39.2 °F 30.8 °F 33.8 °F 81% 30.07 in 5.0 mi ENE 15.0 mph - N/A   Haze
3:52 AM 39.0 °F 31.4 °F 34.0 °F 82% 30.08 in 5.0 mi ENE 12.7 mph - N/A   Haze
4:21 AM 39.2 °F 32.5 °F 33.8 °F 81% 30.06 in 5.0 mi ENE 10.4 mph - N/A   Haze
4:52 AM 39.0 °F 31.8 °F 34.0 °F 82% 30.07 in 4.0 mi ENE 11.5 mph - N/A   Haze
5:24 AM 39.2 °F 32.0 °F 33.8 °F 81% 30.05 in 2.5 mi ENE 11.5 mph - N/A   Haze
5:52 AM 37.9 °F 30.0 °F 35.1 °F 89% 30.07 in 2.0 mi ENE 12.7 mph - N/A   Overcast
6:04 AM 37.4 °F 29.8 °F 35.6 °F 93% 30.05 in 1.5 mi ENE 11.5 mph - N/A   Overcast
6:27 AM 37.4 °F 30.8 °F 35.6 °F 93% 30.06 in 1.5 mi NE 9.2 mph - N/A   Overcast
6:52 AM 37.9 °F 31.5 °F 35.1 °F 89% 30.08 in 1.2 mi NE 9.2 mph - 0.00 in Rain Light Rain
7:52 AM 39.0 °F 32.3 °F 36.0 °F 89% 30.06 in 1.5 mi NE 10.4 mph - 0.01 in Rain Light Rain
8:03 AM 39.2 °F 32.0 °F 35.6 °F 87% 30.04 in 2.0 mi NE 11.5 mph - 0.01 in Rain Rain
8:13 AM 37.4 °F 29.3 °F 35.6 °F 93% 30.03 in 1.5 mi NE 12.7 mph - 0.02 in Rain Light Rain
8:52 AM 39.0 °F 31.8 °F 36.0 °F 89% 30.04 in 1.8 mi NE 11.5 mph - 0.03 in Rain Light Rain
9:24 AM 39.2 °F 33.0 °F 35.6 °F 87% 30.01 in 2.0 mi NE 9.2 mph - 0.02 in Rain Light Rain
9:50 AM 39.2 °F 32.5 °F 35.6 °F 87% 29.99 in 1.8 mi NE 10.4 mph - 0.03 in Rain Light Rain
9:52 AM 39.0 °F 31.8 °F 36.0 °F 89% 30.01 in 1.8 mi NE 11.5 mph - 0.03 in Rain Light Rain
10:25 AM 39.2 °F 32.0 °F 35.6 °F 87% 29.98 in 2.0 mi NE 11.5 mph - 0.01 in Rain Light Rain
10:52 AM 39.0 °F 32.3 °F 36.0 °F 89% 29.98 in 2.0 mi NE 10.4 mph - 0.02 in Rain Light Rain
10:59 AM 39.2 °F 31.6 °F 35.6 °F 87% 29.96 in 2.0 mi NE 12.7 mph - 0.00 in Rain Light Rain
11:52 AM 39.9 °F 32.9 °F 37.0 °F 89% 29.96 in 2.0 mi NNE 11.5 mph - 0.02 in Rain Light Rain
12:52 PM 39.9 °F 32.5 °F 37.0 °F 89% 29.94 in 2.0 mi NNE 12.7 mph - 0.04 in Rain Light Rain
1:52 PM 41.0 °F 34.7 °F 37.0 °F 86% 29.94 in 2.5 mi North 10.4 mph - 0.01 in   Overcast
2:52 PM 41.0 °F 34.3 °F 37.0 °F 86% 29.94 in 2.0 mi North 11.5 mph - 0.01 in Rain Light Rain
3:06 PM 41.0 °F 34.3 °F 37.4 °F 87% 29.93 in 2.0 mi North 11.5 mph - 0.01 in Rain Light Rain
4:52 PM 39.9 °F 35.1 °F 37.0 °F 89% 29.98 in 3.0 mi North 6.9 mph - 0.01 in Rain Light Rain
5:14 PM 41.0 °F 35.2 °F 37.4 °F 87% 29.98 in 3.0 mi NNW 9.2 mph - 0.00 in   Overcast
5:52 PM 39.9 °F 35.1 °F 37.0 °F 89% 30.01 in 3.0 mi NNW 6.9 mph - 0.00 in   Overcast
7:01 PM 39.2 °F 33.6 °F 35.6 °F 87% 30.02 in 3.0 mi NNW 8.1 mph - N/A   Overcast
7:52 PM 39.9 °F 34.5 °F 36.0 °F 86% 30.06 in 3.0 mi NNW 8.1 mph - N/A   Overcast
7:59 PM 39.2 °F 33.6 °F 35.6 °F 87% 30.04 in 3.0 mi NNW 8.1 mph - N/A   Overcast
8:52 PM 39.9 °F 33.9 °F 36.0 °F 86% 30.07 in 3.0 mi NNW 9.2 mph - N/A   Overcast
9:52 PM 39.0 °F 35.7 °F 36.0 °F 89% 30.09 in 3.0 mi NNW 4.6 mph - N/A   Overcast
10:22 PM 39.2 °F 35.0 °F 35.6 °F 87% 30.07 in 2.5 mi NNW 5.8 mph - N/A   Overcast
10:52 PM 37.0 °F 33.3 °F 34.0 °F 89% 30.10 in 2.5 mi NW 4.6 mph - N/A   Mostly Cloudy
10:59 PM 37.4 °F 32.8 °F 33.8 °F 87% 30.08 in 2.5 mi NW 5.8 mph - N/A   Scattered Clouds
11:52 PM 36.0 °F 29.6 °F 33.1 °F 89% 30.13 in 2.5 mi NW 8.1 mph - N/A   Clear